Regional Weather Roundup
Issued by NWS Wakefield, VA

Home | Current Version | Previous Version | Graphics & Text | Print | Product List | Glossary On
Versions: 1 2 3 4 5 6 7 8 9 10 11 12 13 14 15 16 17 18 19 20 21 22 23 24 25 26 27 28 29 30 31 32 33 34 35 36 37 38 39 40 41 42 43 44 45 46 47 48 49 50
000
ASUS41 KAKQ 262210
RWRAKQ

REGIONAL WEATHER ROUNDUP
NATIONAL WEATHER SERVICE WAKEFIELD VA
600 PM EDT TUE AUG 26 2014

Note: "fair" indicates few or no clouds below 12,000 feet with no
significant weather and/or obstructions to visibility. * = Denotes
station may not report precipitation (e.g., rain,snow,etc.),
thunder or fog.

VAZ042-051-052>054-056-262300-
NORTHERN VIRGINIA

CITY           SKY/WX    TMP DP  RH WIND       PRES   REMARKS
WASH NATIONAL  MOSUNNY   86  61  42 E8        30.09F
DULLES         MOSUNNY   83  61  47 SE5       30.09F
FORT BELVOIR   SUNNY     83  63  50 E5        30.09F
QUANTICO       MOSUNNY   84  62  47 NE6       30.09F
FREDERICKSBRG* SUNNY     85  61  44 NE5       30.08F
STAFFORD*      SUNNY     82  62  51 CALM      30.13F
WARRENTON      MOSUNNY   85  70  60 E5        30.10F
CULPEPER*      MOSUNNY  N/A N/A N/A CALM      30.10F
MANASSAS*      SUNNY     82  63  51 SE6       30.09F
LEESBURG*      SUNNY     82  63  51 CALM      30.11S
WINCHESTER     SUNNY     81  59  47 SE5       30.12S
$$

VAZ048-049-060>072-079>083-262300-
CENTRAL AND SOUTH CENTRAL VIRGINIA...AND NORTH CENTRAL NORTH CAROLINA

CITY           SKY/WX    TMP DP  RH WIND       PRES   REMARKS
RICHMOND       MOSUNNY   84  56  38 E3        30.09S
CHESTERFIELD*  CLEAR    N/A N/A N/A E8        30.10S
HANOVER        SUNNY     83  58  42 E6        30.10F
TAPPAHANNOCK*  SUNNY     83  58  42 NE5       30.10S
CHARLOTTSVILLE SUNNY     82  61  48 N3        30.11F
ORANGE*        SUNNY     82  61  47 NE8       30.12S
LOUISA*        SUNNY     82  61  47 N5        30.10F
FARMVILLE*     MOSUNNY   82  59  44 N6        30.09R
SOUTH HILL*    SUNNY     82  63  51 CALM      30.14S
ROANOKE RAPIDS CLEAR     81  61  50 E7        30.07F
RALEIGH        PTSUNNY   80  60  50 NE9       30.09F
$$

VAZ088>098-262300-
SOUTHEAST VIRGINIA

CITY           SKY/WX    TMP DP  RH WIND       PRES   REMARKS
NORFOLK        SUNNY     77  62  59 E14       30.09S
VIRGINIA BEACH MOSUNNY   76  63  64 NE10      30.08F
NORFOLK NAVAL  MOSUNNY   77  64  64 E13       30.10F
WEST POINT*    SUNNY     84  59  42 CALM      30.11S
NEWPORT NEWS   SUNNY     82  63  52 E10       30.09S
LANGLEY AFB    SUNNY     78  65  65 E8        30.08F
FORT EUSTIS    SUNNY     81  57  44 E8        30.07S
WILLIAMSBURG*  SUNNY     86  61  42 CALM      30.10R
FRANKLIN*      SUNNY     81  57  44 E7        30.08S
WAKEFIELD      SUNNY     81  57  43 E6        30.08S
$$

VAZ020-022-025-037-045-262300-
WESTERN AND SOUTHWEST VIRGINIA

CITY           SKY/WX    TMP DP  RH WIND       PRES   REMARKS
STAUNTON*      SUNNY     80  56  43 E5        30.16S
HOT SPRINGS VA MOSUNNY   68  45  43 SE3       30.27S
LYNCHBURG      PTSUNNY   79  59  50 NE5       30.14S
DANVILLE       MOSUNNY   80  61  52 E6        30.11S
MARTINSVILLE   MOSUNNY   80  62  54 NE5       30.15F
ROANOKE        PTSUNNY   77  59  53 S3        30.16S
BLACKSBURG     MOSUNNY   75  61  60 E6        30.20S
DUBLIN*        MOSUNNY   77  58  53 E5        30.19S
MARION*        SUNNY    N/A N/A N/A E6        30.21S
HILLSVILLE*    SUNNY     74  58  57 N6        30.20R
RICHLANDS*     CLEAR     81  54  39 NE3       30.19R
WISE*          SUNNY     79  57  47 N6        30.21R
ABINGDON*      SUNNY     82  59  45 CALM      30.15S
$$

MDZ021>025-VAZ099-100-262300-
SOUTHERN MARYLAND AND THE DELMARVA PENINSULA

CITY           SKY/WX    TMP DP  RH WIND       PRES   REMARKS
PATUXENT RIVER MOSUNNY   82  64  54 NE7       30.09S
BAY BRIDGE APT   N/A     82  63  51 N6        30.09F
LEONARDTOWN    SUNNY     81  61  50 N5        30.11S
DOVER          SUNNY     79  64  60 VRB6      30.09S
GEORGETOWN     SUNNY     79  58  48 SE10      30.11S
EASTON         MOSUNNY   86  63  45 SE7       30.13S
CAMBRIDGE      SUNNY     82  55  39 E6        30.09S
SALISBURY      SUNNY     82  55  39 E7        30.10S
OCEAN CITY     SUNNY     75  64  68 E6        30.11S
WALLOPS ISLAND SUNNY     76  64  66 E12       30.11S
ACCOMACK*      NOT AVBL
$$

NCZ012>017-030>032-262300-
EASTERN NORTH CAROLINA

CITY           SKY/WX    TMP DP  RH WIND       PRES   REMARKS
ELIZABETH CITY SUNNY     77  64  64 NE15      30.08S
AHOSKIE*       SUNNY     79  56  43 NE7       30.08S
EDENTON*       SUNNY     80  61  53 NE8       30.07S
CURRITUCK*     SUNNY     77  62  60 NE9G16    30.10S
KILL DEVIL HLS SUNNY     77  68  72 NE8G16    30.06F
MANTEO         SUNNY     77  68  73 NE13      30.07S
CAPE HATTERAS  MOSUNNY   78  70  76 NE15G24   30.04S
GOLDSBORO      MOSUNNY   82  65  57 NE10      30.04S
WASHINGTON     SUNNY     81  59  47 NE6       30.07R
GREENVILLE     SUNNY     81  61  50 NE7       30.08R
NEW BERN       SUNNY     82  63  52 NE12      30.05S
WILMINGTON     MOSUNNY   83  64  52 N13       30.03S
$$

VAZ048-262300-
ELSEWHERE

CITY           SKY/WX    TMP DP  RH WIND       PRES   REMARKS
HARRISBURG PA  MOSUNNY   84  64  50 CALM      30.08F
BALTIMORE      MOSUNNY   84  58  40 CALM      30.09F
ANNAPOLIS      SUNNY     83  62  49 CALM      30.09S
ANDREWS AFB    SUNNY     82  65  56 E6        30.10F
WILMINGTON DE  SUNNY     81  67  62 S16       30.09F
PHILADELPHIA   MOSUNNY   85  64  49 SE9       30.08F
WILDWOOD NJ*   SUNNY     77  61  57 E8        30.11S
ATLANTIC CITY  SUNNY     77  60  55 SE8       30.10F
HENDERSON NC   MOSUNNY   79  61  54 N5        30.10S
GREENSBORO     PTSUNNY   79  60  52 E12       30.11S
ROCKY MOUNT    MOSUNNY   82  59  45 NE7       30.07S
FAYETTEVILLE   MOSUNNY   81  63  54 NE8       30.06R
CHARLOTTE      MOSUNNY   83  56  39 N9        30.09S
$$

VAZ100-262300-
MARINE

STATION/POSITION TIME  TEMP    WIND        PRES    WAVE   SWELL
                       AIR SEA DIR/SP/G            HT/PER HT/PER
                 (UTC) (F)     (DEG/KT/KT) (MB)    (FT/S) (FT/S)
44066 TX TWR #4  2200   73 73   80/  6/  8 1019.4F   4/ 9   3/ 9
CAPE MAY NJ      2200   75 80  110/  8/ 10 1018.9S
LEWES DE         2200   75 77  130/  5/  8 1019.2F
15NM E FENWICK I 2200   73 74              1019.3F   3/ 9
OCEAN-CITY-INLET 2200   74 77  100/  6/ 11 1019.2F
WACHAPREAGUE VA  2200   75 79   80/ 10/ 13 1019.3S
THOMAS POINT MD  2200   81 77  360/  4/  4 1019.9F
GOOSES REEF MD   2200   80      10/ 10/ 12 1019.5R
COVE POINT MD    2200   79      10/  7/ 11 1018.8R
SOLOMONS ISLAND  2200      81                N/A
BISHOPS HEAD MD  2200   81 79   70/  7/  9 1018.6S
PINEY POINT MD   2200          170/  6/  7   N/A
POTOMAC MD       2200   79     150/  6/  8 1018.2F
CAMBRIDGE MD     2200   83 78   90/  7/  9 1018.7R
LEWISETTA VA     2200   78 79  130/  5/  5 1018.7R
RAPPAHANNOCK LGT 2200           90/ 12/ 14 1019.4F
STINGRAY PT      2200   78      30/  4/  6   N/A
YORK RVR RNG VA  2200   77      80/  8/  9 1018.5S
YORKTOWN VA      2200   78 80  100/  9/ 11 1018.6F
JAMESTOWN VA     2200   80      90/  6/  8   N/A
DOMINION TERM VA 2200   79      60/  2/  5 1019.0S
KIPTOPEKE VA     2200      81  100/  8/ 12   N/A
CHES BAY BRIDGE  2200   74 78   50/ 14/ 16 1018.5F
CAPE HENRY VA    2200   74      60/ 11/ 14 1017.9S
CHESAPEAKE LGHT  2100   73      40/ 14/ 15 1019.5F
WILLOUBY STN VA  2200   75      90/  8/ 10 1017.8F
S CRANEY ISL VA  2200           40/ 10/ 12 1018.6F
CAPE HENRY BUOY  2200      77                N/A     4/ 8   2/11
1ST LANDING BUOY 2200   75      70/ 12/ 14 1018.8F
CAPE CHARLES BUO 2200      77                N/A     4/ 8   3/ 8
OFFSHORE WE BUOY 2200      76                N/A     5/ 8   5/ 8
64NM E OF VA BCH 2200   77 78   50/ 14/ 16 1017.8F   6/ 9   3/ 9
DUCK PIER NC     2200   75 76   30/ 14/ 15 1017.8S
44056 DUCK FRF   2200                        N/A     5/11   2/11
OREGON INLET NC  2200   76 77   20/ 15/ 19 1017.7S
HATTERAS NC      2200   77 78   30/ 15/ 21 1017.4S
DIAMOND SHLS NC  2200   78      10/ 21/ 25 1015.6F   8/10   5/10
CAPE LOOKOUT NC  2100   78      40/ 21/ 24 1016.7F
$$


USA.gov is the U.S. government's official web portal to all federal, state and local government web resources and services.